{"data":{"norad_id":42988,"epoch":"2026-05-25T03:24:03.685248Z","epoch_age_seconds":73475,"freshness":"FRESH","line1":"1 42988U 17068B   26145.14170932  .00008611  00000+0  26269-3 0  9991","line2":"2 42988  97.4473 281.7768 0001586  94.2052 265.9372 15.34179313478828","mean_motion":15.34179313,"eccentricity":0.0001586,"inclination_deg":97.4473,"raan_deg":281.7768,"arg_perigee_deg":94.2052,"mean_anomaly_deg":265.9372,"bstar":0.00026269,"rev_number":47882,"period_min":93.861257794186,"perigee_km":462.27418580046,"apogee_km":464.44430841004,"semimajor_km":6841.4962471053,"source":"CELESTRAK","updated_at":"2026-05-25T13:38:13.296152Z"}}